Location: Zagreb
(45.8000°N, 16.0000°E)
Time: 23:51:00
(UTC+01:00)

Transit 2A Rocket - Pass Details

Date: 09 October 2020
Orbit: 586 x 916 km, 66.7° (Epoch: 28 October)

Event Time Altitude Azimuth Distance (km) Brightness Sun altitude
Rises 01:26:10 0° 314° (NW) 3,332 - -49.5°
Reaches altitude 10° 01:29:25 10° 296° (WNW) 2,328 - -49.3°
Maximum altitude 01:32:51 18° 256° (WSW) 1,777 - -49.1°
Drops below altitude 10° 01:36:06 10° 214° (SW) 2,171 - -48.9°
Sets 01:39:00 0° 195° (SSW) 3,019 - -48.8°
